EW2348 Weather Reports


Display with metric or nautical units.
time (UTC)temp
F
wind
direction
speed
MPH
gust
MPH
rain 1hr
in
rain 24hr
in
rain mn
in
humidity
%
barometer
mb
20150708000351 73 139 2.0 6.0 0.01 0.01 0.01 97 1009.3
20150707235951 73 98 2.0 7.0 0.01 0.01 0.01 97 1009.4
20150707235851 73 98 1.0 7.0 0.01 0.01 0.01 97 1009.5
20150707235751 73 97 3.0 7.0 0.01 0.01 0.01 96 1009.4
20150707235650 73 97 3.0 7.0 0.01 0.01 0.01 96 1009.5
20150707235551 73 96 3.0 7.0 0.01 0.01 0.01 96 1009.6
20150707235351 73 92 2.0 7.0 0.01 0.01 0.01 96 1009.4
20150707235050 73 104 3.0 9.0 0.01 0.01 0.01 96 1009.5
20150707234950 73 113 3.0 9.0 0.01 0.01 0.01 96 1009.5
20150707234851 73 114 5.0 9.0 0.01 0.01 0.01 96 1009.5
20150707234751 73 118 3.0 9.0 0.01 0.01 0.01 96 1009.4
20150707234551 73 128 3.0 9.0 0.01 0.01 0.01 95 1009.4
20150707234450 73 128 3.0 9.0 0.01 0.01 0.01 95 1009.5
20150707234350 73 131 3.0 9.0 0.01 0.01 0.01 95 1009.3
20150707234151 73 132 4.0 9.0 0.01 0.01 0.01 96 1009.4
20150707234051 73 127 4.0 9.0 0.01 0.01 0.01 96 1009.7
20150707233950 73 126 4.0 9.0 0.01 0.01 0.01 96 1009.5
20150707233851 73 123 4.0 9.0 0.01 0.01 0.01 96 1009.3
20150707233751 73 121 5.0 9.0 0.01 0.01 0.01 96 1009.5
20150707233651 73 118 6.0 9.0 0.01 0.01 0.01 96 1009.5
20150707233551 73 121 7.0 9.0 0.01 0.01 0.01 96 1009.5
20150707233451 73 122 5.0 9.0 0.00 0.00 0.00 96 1009.4
20150707233350 73 122 5.0 9.0 0.00 0.00 0.00 96 1009.4
20150707233251 73 128 4.0 9.0 0.00 0.00 0.00 96 1009.3
20150707233151 73 139 4.0 10.0 0.00 0.00 0.00 96 1009.3
20150707232751 73 153 3.0 10.0 0.00 0.00 0.00 95 1009.4
20150707232651 73 151 6.0 10.0 0.00 0.00 0.00 95 1009.4
20150707232551 74 139 3.0 10.0 0.00 0.00 0.00 95 1009.4
20150707232351 74 128 5.0 10.0 0.00 0.00 0.00 95 1009.5
20150707232251 74 119 5.0 10.0 0.00 0.00 0.00 95 1009.4
20150707232151 74 115 6.0 9.0 0.00 0.00 0.00 95 1009.3
20150707231951 74 116 5.0 9.0 0.00 0.00 0.00 95 1009.3
20150707231450 74 127 6.0 11.0 0.00 0.00 0.00 94 1009.3
20150707231351 74 129 4.0 11.0 0.00 0.00 0.00 94 1009.4
20150707231251 74 135 4.0 11.0 0.00 0.00 0.00 93 1009.4
20150707231151 74 127 5.0 11.0 0.00 0.00 0.00 93 1009.3
20150707231051 74 117 7.0 11.0 0.00 0.00 0.00 93 1009.4
20150707230951 74 116 5.0 11.0 0.00 0.00 0.00 93 1009.5
20150707230851 74 116 7.0 11.0 0.00 0.00 0.00 93 1009.5
20150707230751 74 117 5.0 11.0 0.00 0.00 0.00 93 1009.6
20150707230651 74 123 4.0 11.0 0.00 0.00 0.00 93 1009.3
20150707230550 74 123 4.0 11.0 0.00 0.00 0.00 92 1009.6
20150707230450 74 124 6.0 11.0 0.00 0.00 0.00 92 1009.4
20150707230051 74 119 4.0 13.0 0.00 0.00 0.00 91 1009.4
20150707225850 75 114 7.0 13.0 0.00 0.00 0.00 91 1009.4
20150707225751 75 110 3.0 13.0 0.00 0.00 0.00 91 1009.3
20150707225651 75 105 5.0 13.0 0.00 0.00 0.00 90 1009.2
20150707225551 75 104 5.0 13.0 0.00 0.00 0.00 90 1009.3
20150707225450 75 103 5.0 13.0 0.00 0.00 0.00 90 1009.2
20150707225351 75 107 6.0 13.0 0.00 0.00 0.00 90 1009.1
20150707225151 75 99 6.0 13.0 0.00 0.00 0.00 90 1009.2
20150707224851 75 101 5.0 11.0 0.00 0.00 0.00 90 1009.0
20150707224651 75 110 5.0 11.0 0.00 0.00 0.00 90 1009.1
20150707224551 75 117 6.0 11.0 0.00 0.00 0.00 90 1009.2
20150707224451 75 122 3.0 11.0 0.00 0.00 0.00 90 1009.3
20150707224351 75 126 3.0 11.0 0.00 0.00 0.00 90 1009.2
20150707224251 75 133 5.0 13.0 0.00 0.00 0.00 90 1009.0
20150707224151 75 139 4.0 13.0 0.00 0.00 0.00 90 1009.1
20150707224051 75 128 4.0 13.0 0.00 0.00 0.00 90 1009.2
20150707223950 75 133 4.0 13.0 0.00 0.00 0.00 90 1009.2
20150707223850 75 140 7.0 13.0 0.00 0.00 0.00 88 1009.3
20150707223651 75 131 3.0 13.0 0.00 0.00 0.00 88 1009.3
20150707223552 75 134 5.0 13.0 0.00 0.00 0.00 88 1009.2
20150707223451 75 129 4.0 13.0 0.00 0.00 0.00 87 1009.3
20150707223350 75 126 3.0 13.0 0.00 0.00 0.00 87 1009.3
20150707223251 75 121 9.0 13.0 0.00 0.00 0.00 87 1009.3
20150707223151 76 119 4.0 13.0 0.00 0.00 0.00 87 1009.3
20150707223051 76 123 7.0 13.0 0.00 0.00 0.00 86 1009.3
20150707222950 76 118 5.0 11.0 0.00 0.00 0.00 86 1009.3
20150707222851 76 119 7.0 11.0 0.00 0.00 0.00 86 1009.3
20150707222751 76 121 6.0 11.0 0.00 0.00 0.00 86 1009.3
20150707222651 76 125 7.0 11.0 0.00 0.00 0.00 86 1009.3
20150707222551 76 123 7.0 12.0 0.00 0.00 0.00 86 1009.4
20150707222451 76 129 6.0 12.0 0.00 0.00 0.00 86 1009.2
20150707222251 76 134 8.0 12.0 0.00 0.00 0.00 86 1009.3
20150707222151 76 138 3.0 12.0 0.00 0.00 0.00 86 1009.3
20150707221951 76 143 5.0 12.0 0.00 0.00 0.00 85 1009.3
20150707221852 76 143 8.0 12.0 0.00 0.00 0.00 85 1009.3
20150707221651 76 147 6.0 14.0 0.00 0.00 0.00 85 1009.3
20150707221352 76 130 7.0 14.0 0.00 0.00 0.00 85 1009.3
20150707221251 76 124 5.0 14.0 0.00 0.00 0.00 85 1009.3
20150707221051 76 112 5.0 14.0 0.00 0.00 0.00 85 1009.4
20150707220950 76 106 7.0 14.0 0.00 0.00 0.00 84 1009.3
20150707220551 76 102 7.0 14.0 0.00 0.00 0.00 84 1009.2
20150707220451 76 109 7.0 14.0 0.00 0.00 0.00 84 1009.2
20150707220250 76 123 7.0 14.0 0.00 0.00 0.00 84 1009.2
20150707220150 76 130 7.0 16.0 0.00 0.00 0.00 84 1009.3
20150707220052 76 134 7.0 16.0 0.00 0.00 0.00 84 1009.2
20150707215954 76 135 7.0 16.0 0.00 0.00 0.00 84 1009.3
20150707215851 76 131 9.0 17.0 0.00 0.00 0.00 84 1009.1
20150707215751 77 135 6.0 17.0 0.00 0.00 0.00 84 1009.2
20150707215651 77 143 5.0 19.0 0.00 0.00 0.00 83 1009.2
20150707215451 77 141 7.0 19.0 0.00 0.00 0.00 82 1009.3
20150707215250 77 140 5.0 19.0 0.00 0.00 0.00 81 1009.1
20150707215150 77 142 8.0 19.0 0.00 0.00 0.00 80 1009.2
20150707215050 77 137 9.0 19.0 0.00 0.00 0.00 80 1009.2
20150707214751 77 143 11.0 19.0 0.00 0.00 0.00 79 1009.0
20150707214550 77 154 10.0 19.0 0.00 0.00 0.00 80 1009.0
20150707214150 77 142 7.0 23.0 0.00 0.00 0.00 79 1009.0
20150707213950 78 152 9.0 23.0 0.00 0.00 0.00 78 1009.0
20150707213851 78 148 7.0 23.0 0.00 0.00 0.00 78 1009.0
20150707213751 78 146 13.0 23.0 0.00 0.00 0.00 77 1009.0
20150707213651 78 138 13.0 23.0 0.00 0.00 0.00 78 1009.0
20150707213551 78 132 11.0 23.0 0.00 0.00 0.00 78 1009.1
20150707213450 78 127 15.0 23.0 0.00 0.00 0.00 78 1009.0
20150707213350 78 119 5.0 21.0 0.00 0.00 0.00 81 1008.9
20150707213251 78 127 9.0 21.0 0.00 0.00 0.00 80 1009.0
20150707213151 78 128 9.0 21.0 0.00 0.00 0.00 82 1009.0
20150707213050 78 126 5.0 21.0 0.00 0.00 0.00 81 1008.9
20150707212951 78 124 10.0 21.0 0.00 0.00 0.00 81 1009.0
20150707212751 78 121 9.0 21.0 0.00 0.00 0.00 81 1009.1
20150707212651 78 123 9.0 21.0 0.00 0.00 0.00 81 1008.8
20150707212450 78 117 11.0 21.0 0.00 0.00 0.00 83 1009.0
20150707212151 78 114 7.0 21.0 0.00 0.00 0.00 83 1009.1
20150707211950 78 113 8.0 21.0 0.00 0.00 0.00 83 1008.9
20150707211850 78 122 11.0 21.0 0.00 0.00 0.00 83 1009.0
20150707211751 78 129 9.0 16.0 0.00 0.00 0.00 84 1008.7
20150707211651 78 122 7.0 16.0 0.00 0.00 0.00 84 1009.1
20150707211551 78 121 11.0 16.0 0.00 0.00 0.00 84 1009.0
20150707211452 78 131 7.0 15.0 0.00 0.00 0.00 84 1009.1
20150707211251 78 131 9.0 15.0 0.00 0.00 0.00 84 1008.9
20150707211151 78 137 5.0 15.0 0.00 0.00 0.00 84 1009.1
20150707210950 78 145 9.0 15.0 0.00 0.00 0.00 84 1009.0
20150707210751 78 134 7.0 13.0 0.00 0.00 0.00 85 1009.2
20150707210651 78 136 7.0 13.0 0.00 0.00 0.00 85 1009.1
20150707210550 78 138 11.0 13.0 0.00 0.00 0.00 85 1008.9
20150707210450 78 131 5.0 12.0 0.00 0.00 0.00 85 1009.1
20150707210351 78 130 5.0 13.0 0.00 0.00 0.00 85 1009.1
20150707210153 78 117 5.0 13.0 0.00 0.00 0.00 85 1009.1
20150707205951 78 109 7.0 13.0 0.00 0.00 0.00 85 1009.0
20150707205752 78 97 5.0 13.0 0.00 0.00 0.00 86 1009.2
20150707205650 78 103 3.0 13.0 0.00 0.00 0.00 86 1009.2
20150707205450 78 110 6.0 13.0 0.00 0.00 0.00 85 1009.3
20150707205251 78 124 7.0 12.0 0.00 0.00 0.00 86 1009.1
20150707205051 77 132 5.0 12.0 0.00 0.00 0.00 86 1009.1
20150707204950 77 130 4.0 12.0 0.00 0.00 0.00 86 1009.3
20150707204851 77 134 5.0 12.0 0.00 0.00 0.00 86 1009.1
20150707204550 77 126 6.0 11.0 0.00 0.00 0.00 86 1009.3
20150707204350 77 124 5.0 11.0 0.00 0.00 0.00 86 1009.1
20150707204251 77 122 5.0 11.0 0.00 0.00 0.00 86 1009.2
20150707204151 77 125 6.0 11.0 0.00 0.00 0.00 86 1009.1
20150707204051 77 127 5.0 11.0 0.00 0.00 0.00 86 1009.2
20150707203950 77 129 5.0 11.0 0.00 0.00 0.00 86 1009.2
20150707203852 77 129 3.0 11.0 0.00 0.00 0.00 86 1009.0
20150707203651 77 134 6.0 11.0 0.00 0.00 0.00 86 1009.0
20150707203550 77 139 6.0 11.0 0.00 0.00 0.00 86 1008.9
20150707203351 77 132 5.0 11.0 0.00 0.00 0.00 87 1009.3
20150707203251 77 130 5.0 11.0 0.00 0.00 0.00 87 1009.3
20150707203151 77 129 5.0 11.0 0.00 0.00 0.00 87 1009.1
20150707202950 77 124 7.0 11.0 0.00 0.00 0.00 87 1009.2
20150707202850 77 118 5.0 11.0 0.00 0.00 0.00 87 1009.1
20150707202651 77 108 4.0 11.0 0.00 0.00 0.00 87 1009.2
20150707202551 77 105 7.0 11.0 0.00 0.00 0.00 87 1009.2
20150707202450 77 113 4.0 11.0 0.00 0.00 0.00 87 1009.1
20150707202350 77 111 4.0 11.0 0.00 0.00 0.00 87 1009.1
20150707202051 77 113 5.0 8.0 0.00 0.00 0.00 86 1009.2
20150707201951 77 110 3.0 8.0 0.00 0.00 0.00 86 1009.2
20150707201851 77 114 5.0 9.0 0.00 0.00 0.00 86 1009.3
20150707201650 77 115 4.0 10.0 0.00 0.00 0.00 86 1009.2
20150707201451 77 105 3.0 10.0 0.00 0.00 0.00 84 1009.3
20150707201250 77 103 5.0 10.0 0.00 0.00 0.00 84 1009.1
20150707201150 77 101 5.0 10.0 0.00 0.00 0.00 84 1009.1
20150707201051 77 97 6.0 10.0 0.00 0.00 0.00 84 1009.1
20150707200550 77 98 6.0 11.0 0.00 0.00 0.00 83 1009.0
20150707200351 77 96 6.0 11.0 0.00 0.00 0.00 83 1009.2
20150707200151 77 102 6.0 11.0 0.00 0.00 0.00 83 1009.3
20150707200050 77 106 6.0 11.0 0.00 0.00 0.00 83 1009.2
20150707195751 140 118 5.0 14.0 0.00 0.00 0.00 83 1009.3
20150707195551 78 101 9.0 16.0 0.00 0.00 0.00 83 1009.1
20150707195454 78 99 5.0 16.0 0.00 0.00 0.00 82 1009.3
20150707195350 78 101 5.0 16.0 0.00 0.00 0.00 83 1009.2
20150707195250 78 94 5.0 16.0 0.00 0.00 0.00 82 1009.3
20150707195151 78 98 6.0 16.0 0.00 0.00 0.00 82 1009.0
20150707195051 78 95 6.0 16.0 0.00 0.00 0.00 81 1008.9
20150707194850 78 95 7.0 16.0 0.00 0.00 0.00 81 1009.3
20150707194650 78 106 9.0 16.0 0.00 0.00 0.00 82 1008.9
20150707194551 78 111 5.0 15.0 0.00 0.00 0.00 82 1009.1
20150707193751 78 107 7.0 12.0 0.00 0.00 0.00 83 1008.8
20150707193650 78 114 4.0 15.0 0.00 0.00 0.00 84 1009.0
20150707193550 79 123 5.0 15.0 0.00 0.00 0.00 84 1008.9
20150707193450 78 125 5.0 17.0 0.00 0.00 0.00 84 1009.0
20150707193350 78 122 8.0 17.0 0.00 0.00 0.00 83 1009.2
20150707193251 79 120 7.0 17.0 0.00 0.00 0.00 83 1009.0
20150707193051 78 123 4.0 17.0 0.00 0.00 0.00 83 1009.0
20150707192551 78 104 9.0 17.0 0.00 0.00 0.00 81 1009.1
20150707192451 78 105 9.0 16.0 0.00 0.00 0.00 82 1008.8
20150707192350 78 113 7.0 16.0 0.00 0.00 0.00 82 1008.7
20150707192251 78 111 7.0 16.0 0.00 0.00 0.00 82 1009.0
20150707192151 78 105 10.0 16.0 0.00 0.00 0.00 83 1008.8
20150707191951 78 116 5.0 16.0 0.00 0.00 0.00 83 1008.7
20150707191850 78 116 9.0 16.0 0.00 0.00 0.00 83 1008.9
20150707191750 77 117 7.0 16.0 0.00 0.00 0.00 84 1008.9
20150707191551 77 115 11.0 15.0 0.00 0.00 0.00 85 1008.9
20150707191450 77 109 9.0 15.0 0.00 0.00 0.00 85 1009.2
20150707191350 77 104 9.0 13.0 0.00 0.00 0.00 86 1008.8
20150707191250 78 104 5.0 13.0 0.00 0.00 0.00 86 1009.1
20150707191150 77 104 7.0 13.0 0.00 0.00 0.00 86 1009.0
20150707191051 77 100 7.0 13.0 0.00 0.00 0.00 86 1008.8
20150707190951 78 96 7.0 11.0 0.00 0.00 0.00 87 1008.9
20150707190851 77 96 4.0 9.0 0.00 0.00 0.00 87 1008.9
20150707190750 77 95 7.0 9.0 0.00 0.00 0.00 86 1009.0
20150707190650 78 100 5.0 9.0 0.00 0.00 0.00 86 1008.9
20150707190150 78 116 3.0 10.0 0.00 0.00 0.00 85 1009.1
20150707185851 78 113 3.0 10.0 0.00 0.00 0.00 85 1008.9
20150707185750 78 112 3.0 10.0 0.00 0.00 0.00 85 1008.9
20150707185650 78 111 4.0 10.0 0.00 0.00 0.00 86 1009.1
20150707185551 78 110 7.0 10.0 0.00 0.00 0.00 86 1008.9
20150707185351 78 108 5.0 12.0 0.00 0.00 0.00 86 1009.0
20150707185150 78 106 5.0 12.0 0.00 0.00 0.00 86 1009.1
20150707184951 77 113 5.0 12.0 0.00 0.00 0.00 86 1008.8
20150707184851 77 113 5.0 12.0 0.00 0.00 0.00 86 1009.0
20150707184750 77 114 4.0 12.0 0.00 0.00 0.00 86 1009.0
20150707184551 77 109 5.0 12.0 0.00 0.00 0.00 86 1008.9
20150707184351 77 106 5.0 10.0 0.00 0.00 0.00 86 1008.9
20150707184150 77 102 7.0 10.0 0.00 0.00 0.00 85 1008.8
20150707184051 77 97 6.0 10.0 0.00 0.00 0.00 85 1008.9
20150707183951 77 85 3.0 10.0 0.00 0.00 0.00 85 1009.0
20150707183750 77 88 7.0 13.0 0.00 0.00 0.00 85 1009.1
20150707183550 77 89 5.0 13.0 0.00 0.00 0.00 85 1009.1
20150707183351 77 78 4.0 13.0 0.00 0.00 0.00 85 1009.0
20150707182851 77 105 7.0 13.0 0.00 0.00 0.00 85 1009.2
20150707182751 77 102 7.0 12.0 0.00 0.00 0.00 84 1009.0
20150707182650 77 101 7.0 12.0 0.00 0.00 0.00 85 1009.2
20150707182551 77 105 5.0 12.0 0.00 0.00 0.00 85 1009.3
20150707182451 77 115 5.0 12.0 0.00 0.00 0.00 84 1009.2
20150707182250 77 111 3.0 11.0 0.00 0.00 0.00 84 1009.0
20150707182151 77 118 6.0 11.0 0.00 0.00 0.00 84 1009.2
20150707181951 77 110 5.0 11.0 0.00 0.00 0.00 84 1009.3
20150707181851 77 105 5.0 11.0 0.00 0.00 0.00 84 1009.3
20150707181750 78 105 5.0 11.0 0.00 0.00 0.00 84 1009.2
20150707181550 78 116 5.0 11.0 0.00 0.00 0.00 84 1009.3
20150707181451 78 119 5.0 11.0 0.00 0.00 0.00 84 1009.2
20150707181350 77 131 4.0 11.0 0.00 0.00 0.00 84 1009.2
20150707181150 78 145 6.0 11.0 0.00 0.00 0.00 83 1009.2
20150707180950 78 162 3.0 9.0 0.00 0.00 0.00 84 1009.4
20150707180751 78 164 5.0 9.0 0.00 0.00 0.00 83 1009.3
20150707180650 78 154 5.0 13.0 0.00 0.00 0.00 83 1009.2
20150707180551 78 140 5.0 13.0 0.00 0.00 0.00 83 1009.2
20150707180450 78 127 5.0 13.0 0.00 0.00 0.00 83 1009.2
20150707180351 78 125 5.0 13.0 0.00 0.00 0.00 83 1009.2
20150707175850 78 102 5.0 13.0 0.00 0.00 0.00 83 1009.5
20150707175651 78 107 8.0 13.0 0.00 0.00 0.00 83 1009.2
20150707175550 78 114 5.0 13.0 0.00 0.00 0.00 83 1009.4
20150707175450 77 123 8.0 13.0 0.00 0.00 0.00 83 1009.3
20150707175350 78 121 6.0 13.0 0.00 0.00 0.00 83 1009.2
20150707175152 78 118 3.0 13.0 0.00 0.00 0.00 83 1009.2
20150707175052 78 118 4.0 14.0 0.00 0.00 0.00 83 1009.2
20150707174851 78 118 1.0 14.0 0.00 0.00 0.00 83 1009.4
20150707174750 78 115 5.0 14.0 0.00 0.00 0.00 83 1009.3
20150707174650 78 110 5.0 14.0 0.00 0.00 0.00 83 1009.2
20150707174551 78 109 4.0 17.0 0.00 0.00 0.00 83 1009.0
20150707174451 78 111 5.0 19.0 0.00 0.00 0.00 82 1009.2
20150707174350 78 107 6.0 19.0 0.00 0.00 0.00 82 1009.3
20150707174250 78 108 5.0 19.0 0.00 0.00 0.00 81 1009.2
20150707174150 78 107 7.0 19.0 0.00 0.00 0.00 81 1009.2
20150707174050 78 107 8.0 19.0 0.00 0.00 0.00 81 1009.2
20150707173851 78 108 9.0 19.0 0.00 0.00 0.00 81 1009.2
20150707173750 79 112 10.0 19.0 0.00 0.00 0.00 80 1009.0
20150707173650 79 119 8.0 19.0 0.00 0.00 0.00 79 1009.2
20150707173551 79 117 12.0 19.0 0.00 0.00 0.00 77 1009.3
20150707173250 80 108 10.0 19.0 0.00 0.00 0.00 76 1009.1
20150707173151 80 109 7.0 19.0 0.00 0.00 0.00 75 1008.9
20150707173051 81 109 7.0 19.0 0.00 0.00 0.00 75 1009.0
20150707172951 81 107 5.0 19.0 0.00 0.00 0.00 74 1009.1
20150707172850 81 106 7.0 19.0 0.00 0.00 0.00 75 1009.1
20150707172650 81 98 6.0 15.0 0.00 0.00 0.00 75 1009.2
20150707172450 81 103 6.0 15.0 0.00 0.00 0.00 75 1009.2
20150707172351 81 114 8.0 15.0 0.00 0.00 0.00 75 1009.1
20150707172051 81 115 4.0 12.0 0.00 0.00 0.00 79 1009.1
20150707171750 80 112 5.0 12.0 0.00 0.00 0.00 79 1009.1
20150707171650 80 110 5.0 14.0 0.00 0.00 0.00 79 1009.2
20150707171451 80 98 8.0 14.0 0.00 0.00 0.00 79 1009.1
20150707171250 80 89 5.0 14.0 0.00 0.00 0.00 80 1009.1
20150707171150 80 92 5.0 14.0 0.00 0.00 0.00 80 1009.0
20150707171051 80 96 6.0 14.0 0.00 0.00 0.00 80 1009.0
20150707170951 80 96 5.0 14.0 0.00 0.00 0.00 80 1009.1
20150707170850 80 97 6.0 14.0 0.00 0.00 0.00 79 1009.0
20150707170751 80 91 7.0 14.0 0.00 0.00 0.00 80 1009.1
20150707170651 80 90 5.0 11.0 0.00 0.00 0.00 80 1009.0
20150707170553 80 89 6.0 11.0 0.00 0.00 0.00 80 1009.0
20150707170451 80 96 7.0 11.0 0.00 0.00 0.00 81 1009.1
20150707170351 80 99 5.0 11.0 0.00 0.00 0.00 81 1008.9
20150707165951 79 94 5.0 11.0 0.00 0.00 0.00 82 1009.1
20150707165851 79 98 6.0 11.0 0.00 0.00 0.00 82 1009.2
20150707165750 79 109 5.0 11.0 0.00 0.00 0.00 82 1009.0
20150707165651 79 106 6.0 11.0 0.00 0.00 0.00 81 1009.0
20150707165551 79 114 7.0 12.0 0.00 0.00 0.00 81 1009.1
20150707165450 79 111 6.0 12.0 0.00 0.00 0.00 81 1009.2
20150707165351 79 111 5.0 12.0 0.00 0.00 0.00 80 1009.3
20150707165251 79 114 5.0 12.0 0.00 0.00 0.00 80 1009.2
20150707165150 79 112 5.0 12.0 0.00 0.00 0.00 79 1008.9
20150707165050 80 107 5.0 13.0 0.00 0.00 0.00 79 1009.3
20150707164950 80 112 7.0 13.0 0.00 0.00 0.00 78 1009.0
20150707164850 80 98 5.0 19.0 0.00 0.00 0.00 78 1009.3
20150707164751 81 97 5.0 19.0 0.00 0.00 0.00 77 1009.2
20150707164651 81 95 4.0 19.0 0.00 0.00 0.00 76 1009.1
20150707164550 81 95 5.0 19.0 0.00 0.00 0.00 77 1009.1
20150707164450 81 96 5.0 19.0 0.00 0.00 0.00 77 1009.0
20150707164350 81 104 5.0 19.0 0.00 0.00 0.00 76 1009.3
20150707164251 81 102 8.0 19.0 0.00 0.00 0.00 76 1009.1
20150707164050 80 112 7.0 19.0 0.00 0.00 0.00 78 1009.0
20150707163851 80 119 15.0 19.0 0.00 0.00 0.00 78 1009.2
20150707163750 80 122 3.0 11.0 0.00 0.00 0.00 79 1009.2
20150707163651 80 125 5.0 11.0 0.00 0.00 0.00 79 1009.2
20150707163550 80 120 7.0 11.0 0.00 0.00 0.00 78 1009.1
20150707163451 80 117 4.0 11.0 0.00 0.00 0.00 78 1009.0
20150707163353 80 106 5.0 11.0 0.00 0.00 0.00 78 1009.0
20150707163252 80 105 7.0 11.0 0.00 0.00 0.00 78 1009.3
20150707162950 82 80 6.0 11.0 0.00 0.00 0.00 76 1009.3
20150707162850 82 84 5.0 11.0 0.00 0.00 0.00 77 1009.3
20150707162751 81 74 4.0 15.0 0.00 0.00 0.00 76 1009.2
20150707162651 82 74 6.0 15.0 0.00 0.00 0.00 77 1009.4
20150707162551 82 73 6.0 15.0 0.00 0.00 0.00 78 1009.4
20150707162450 81 72 5.0 15.0 0.00 0.00 0.00 78 1009.3
20150707162351 81 70 7.0 15.0 0.00 0.00 0.00 79 1009.2
20150707162150 81 67 7.0 15.0 0.00 0.00 0.00 80 1009.3
20150707162050 81 73 3.0 15.0 0.00 0.00 0.00 80 1009.5
20150707161950 80 76 3.0 15.0 0.00 0.00 0.00 80 1009.4
20150707161751 80 90 4.0 13.0 0.00 0.00 0.00 81 1009.5
20150707161551 80 89 5.0 13.0 0.00 0.00 0.00 81 1009.6
20150707161452 80 88 3.0 13.0 0.00 0.00 0.00 82 1009.4
20150707161351 80 90 7.0 13.0 0.00 0.00 0.00 82 1009.6
20150707161253 80 92 5.0 13.0 0.00 0.00 0.00 82 1009.6
20150707161152 81 86 5.0 13.0 0.00 0.00 0.00 82 1009.6
20150707160651 78 73 3.0 9.0 0.00 0.00 0.00 85 1009.7
20150707160550 78 78 3.0 9.0 0.00 0.00 0.00 85 1009.8
20150707160451 78 79 3.0 9.0 0.00 0.00 0.00 85 1009.9
20150707160250 78 90 3.0 9.0 0.00 0.00 0.00 85 1009.9
20150707160050 78 107 3.0 9.0 0.00 0.00 0.00 85 1010.1
20150707155851 78 110 5.0 9.0 0.00 0.00 0.00 85 1010.0
20150707155650 78 103 5.0 9.0 0.00 0.00 0.00 84 1009.7
20150707155452 79 117 5.0 9.0 0.00 0.00 0.00 84 1009.8
20150707155351 79 116 4.0 9.0 0.00 0.00 0.00 82 1009.9
20150707155252 79 116 5.0 9.0 0.00 0.00 0.00 82 1009.9
20150707155150 80 112 5.0 9.0 0.00 0.00 0.00 82 1009.8
20150707155050 80 110 3.0 9.0 0.00 0.00 0.00 83 1009.8
20150707154951 80 114 5.0 9.0 0.00 0.00 0.00 83 1010.1
20150707154750 80 112 3.0 9.0 0.00 0.00 0.00 83 1009.9
20150707154550 80 115 5.0 9.0 0.00 0.00 0.00 84 1010.1
20150707154452 79 112 3.0 9.0 0.00 0.00 0.00 85 1010.0
20150707154250 78 109 5.0 11.0 0.00 0.00 0.00 86 1010.0
20150707154151 78 104 5.0 11.0 0.00 0.00 0.00 86 1010.0
20150707154052 78 104 1.0 11.0 0.00 0.00 0.00 86 1009.9
20150707153951 77 100 4.0 11.0 0.00 0.00 0.00 86 1010.1
20150707153850 77 100 5.0 11.0 0.00 0.00 0.00 86 1010.1
20150707153750 77 102 5.0 11.0 0.00 0.00 0.00 85 1010.2
20150707153650 77 100 4.0 14.0 0.00 0.00 0.00 85 1009.9
20150707153451 77 95 5.0 14.0 0.00 0.00 0.00 85 1010.1
20150707153350 78 92 3.0 14.0 0.00 0.00 0.00 85 1010.1
20150707153250 78 92 3.0 14.0 0.00 0.00 0.00 85 1010.1
20150707153151 78 92 3.0 14.0 0.00 0.00 0.00 85 1010.3
20150707153051 78 92 3.0 14.0 0.00 0.00 0.00 84 1010.0
20150707152850 78 95 3.0 14.0 0.00 0.00 0.00 84 1009.9
20150707152351 78 92 4.0 13.0 0.00 0.00 0.00 85 1010.2
20150707152251 78 92 5.0 13.0 0.00 0.00 0.00 85 1010.2
20150707152150 78 95 3.0 13.0 0.00 0.00 0.00 84 1010.1
20150707151850 78 92 4.0 12.0 0.00 0.00 0.00 84 1010.3
20150707151750 78 95 8.0 12.0 0.00 0.00 0.00 83 1010.3
20150707151650 79 101 7.0 12.0 0.00 0.00 0.00 83 1010.3
20150707151551 79 112 6.0 12.0 0.00 0.00 0.00 82 1010.3
20150707151451 80 106 8.0 12.0 0.00 0.00 0.00 84 1010.4
20150707151350 80 103 3.0 9.0 0.00 0.00 0.00 84 1010.3
20150707151251 79 109 7.0 9.0 0.00 0.00 0.00 84 1010.1
20150707151150 79 105 3.0 9.0 0.00 0.00 0.00 84 1010.4
20150707151050 79 103 4.0 9.0 0.00 0.00 0.00 86 1010.2
20150707150951 78 107 3.0 10.0 0.00 0.00 0.00 85 1010.1
20150707150851 78 114 3.0 10.0 0.00 0.00 0.00 86 1010.4
20150707150750 78 120 3.0 11.0 0.00 0.00 0.00 86 1010.3
20150707150550 78 114 3.0 14.0 0.00 0.00 0.00 87 1010.6
20150707150450 77 117 4.0 14.0 0.00 0.00 0.00 87 1010.3
20150707150351 77 109 3.0 14.0 0.00 0.00 0.00 86 1010.4
20150707150250 77 104 6.0 14.0 0.00 0.00 0.00 87 1010.4
20150707150150 77 109 2.0 14.0 0.00 0.00 0.00 87 1010.2
20150707150050 77 110 3.0 14.0 0.00 0.00 0.00 86 1010.7
20150707145950 77 111 6.0 14.0 0.00 0.00 0.00 87 1010.4
20150707145851 77 105 7.0 14.0 0.00 0.00 0.00 86 1010.4
20150707145750 77 102 5.0 14.0 0.00 0.00 0.00 86 1010.4
20150707145550 77 104 4.0 13.0 0.00 0.00 0.00 86 1010.3
20150707145450 77 103 4.0 13.0 0.00 0.00 0.00 86 1010.1
20150707145351 77 117 10.0 13.0 0.00 0.00 0.00 86 1010.4
20150707145150 77 122 3.0 11.0 0.00 0.00 0.00 86 1010.2
20150707144950 77 118 5.0 11.0 0.00 0.00 0.00 86 1010.4
20150707144850 77 120 5.0 11.0 0.00 0.00 0.00 86 1010.5
20150707144651 77 109 7.0 12.0 0.00 0.00 0.00 86 1010.4
20150707144550 77 104 4.0 12.0 0.00 0.00 0.00 86 1010.4
20150707144350 77 91 4.0 12.0 0.00 0.00 0.00 86 1010.6
20150707144051 77 100 4.0 12.0 0.00 0.00 0.00 87 1010.6
20150707143850 77 109 7.0 12.0 0.00 0.00 0.00 87 1010.5
20150707143750 77 120 4.0 12.0 0.00 0.00 0.00 86 1010.5
20150707143550 77 133 5.0 9.0 0.00 0.00 0.00 87 1010.4
20150707143451 77 139 3.0 9.0 0.00 0.00 0.00 87 1010.6
20150707143250 77 129 5.0 9.0 0.00 0.00 0.00 88 1010.6
20150707143150 77 117 5.0 9.0 0.00 0.00 0.00 89 1010.5
20150707143050 76 108 4.0 10.0 0.00 0.00 0.00 89 1010.4
20150707142950 76 93 6.0 10.0 0.00 0.00 0.00 89 1010.6
20150707142851 76 90 4.0 10.0 0.00 0.00 0.00 89 1010.5
20150707142750 76 90 4.0 10.0 0.00 0.00 0.00 89 1010.3
20150707142550 76 99 3.0 11.0 0.00 0.00 0.00 89 1010.4
20150707142450 76 100 3.0 11.0 0.00 0.00 0.00 89 1010.5
20150707142350 76 94 3.0 11.0 0.00 0.00 0.00 89 1010.5
20150707142151 76 106 5.0 11.0 0.00 0.00 0.00 89 1010.2
20150707141950 76 113 5.0 11.0 0.00 0.00 0.00 89 1010.3
20150707141850 76 114 5.0 11.0 0.00 0.00 0.00 89 1010.6
20150707141751 76 109 4.0 11.0 0.00 0.00 0.00 89 1010.5
20150707141650 76 103 9.0 11.0 0.00 0.00 0.00 89 1010.4
20150707141450 76 84 7.0 11.0 0.00 0.00 0.00 89 1010.5
20150707141350 76 86 7.0 11.0 0.00 0.00 0.00 88 1010.5
20150707141250 76 75 7.0 11.0 0.00 0.00 0.00 88 1010.4
20150707141151 76 61 7.0 11.0 0.00 0.00 0.00 88 1010.4
20150707141051 76 60 5.0 7.0 0.00 0.00 0.00 88 1010.4
20150707140950 77 53 4.0 7.0 0.00 0.00 0.00 88 1010.4
20150707140850 77 53 3.0 7.0 0.00 0.00 0.00 87 1010.4
20150707140650 77 58 4.0 8.0 0.00 0.00 0.00 88 1010.4
20150707140351 77 77 4.0 9.0 0.00 0.00 0.00 88 1010.6
20150707140250 77 86 4.0 13.0 0.00 0.00 0.00 88 1010.6
20150707140151 77 94 4.0 13.0 0.00 0.00 0.00 88 1010.6
20150707140051 77 102 4.0 13.0 0.00 0.00 0.00 88 1010.5
20150707135850 76 106 4.0 13.0 0.00 0.00 0.00 89 1010.5
20150707135751 76 111 4.0 13.0 0.00 0.00 0.00 89 1010.3
20150707135450 76 101 5.0 13.0 0.00 0.00 0.00 89 1010.4
20150707135350 76 100 3.0 13.0 0.00 0.00 0.00 89 1010.5
20150707135250 76 98 9.0 13.0 0.00 0.00 0.00 89 1010.4
20150707135151 76 93 3.0 10.0 0.00 0.00 0.00 89 1010.5
20150707134950 76 90 6.0 11.0 0.00 0.00 0.00 88 1010.4
20150707134851 76 88 7.0 11.0 0.00 0.00 0.00 88 1010.4
20150707134650 76 82 5.0 11.0 0.00 0.00 0.00 88 1010.5
20150707134550 76 83 5.0 11.0 0.00 0.00 0.00 89 1010.6
20150707134450 76 88 3.0 11.0 0.00 0.00 0.00 88 1010.6
20150707134351 76 93 5.0 11.0 0.00 0.00 0.00 88 1010.6
20150707134251 76 93 4.0 11.0 0.00 0.00 0.00 88 1010.4
20150707134150 76 94 3.0 11.0 0.00 0.00 0.00 88 1010.5
20150707134050 76 95 5.0 11.0 0.00 0.00 0.00 87 1010.4
20150707133951 76 103 8.0 11.0 0.00 0.00 0.00 87 1010.5
20150707133651 77 127 1.0 7.0 0.00 0.00 0.00 87 1010.4
20150707133551 77 125 2.0 7.0 0.00 0.00 0.00 87 1010.5
20150707133350 77 121 3.0 7.0 0.00 0.00 0.00 88 1010.6
20150707133250 76 119 2.0 7.0 0.00 0.00 0.00 89 1010.4
20150707133151 77 116 3.0 9.0 0.00 0.00 0.00 89 1010.4
20150707133050 77 107 3.0 9.0 0.00 0.00 0.00 89 1010.4
20150707132950 77 104 4.0 9.0 0.00 0.00 0.00 90 1010.4
20150707132850 77 100 2.0 9.0 0.00 0.00 0.00 90 1010.4
20150707132650 76 101 3.0 13.0 0.00 0.00 0.00 90 1010.5
20150707132550 76 100 5.0 13.0 0.00 0.00 0.00 90 1010.6
20150707132450 76 93 3.0 13.0 0.00 0.00 0.00 91 1010.6
20150707132351 76 93 2.0 13.0 0.00 0.00 0.00 91 1010.4
20150707132251 76 93 3.0 13.0 0.00 0.00 0.00 91 1010.5
20150707131851 75 103 6.0 13.0 0.00 0.00 0.00 91 1010.4
20150707131650 75 101 5.0 9.0 0.00 0.00 0.00 92 1010.6
20150707131551 75 108 5.0 10.0 0.00 0.00 0.00 93 1010.5
20150707131352 75 114 3.0 10.0 0.00 0.00 0.00 94 1010.6
20150707131150 75 119 3.0 10.0 0.00 0.00 0.00 94 1010.5
20150707131051 75 120 5.0 10.0 0.00 0.00 0.00 94 1010.7
20150707130850 75 107 3.0 10.0 0.00 0.00 0.00 94 1010.7
20150707130750 75 106 7.0 10.0 0.00 0.00 0.00 94 1010.7
20150707130650 74 101 5.0 10.0 0.00 0.00 0.00 94 1010.7
20150707130551 74 97 5.0 10.0 0.00 0.00 0.00 94 1010.6
20150707130450 74 104 6.0 10.0 0.00 0.00 0.00 94 1010.6
20150707130350 74 102 5.0 10.0 0.00 0.00 0.00 94 1010.7
20150707130250 75 108 3.0 10.0 0.00 0.00 0.00 94 1010.7
20150707130050 75 110 5.0 10.0 0.00 0.00 0.00 94 1010.6
20150707125851 75 111 4.0 10.0 0.00 0.00 0.00 94 1010.7
20150707125650 75 110 7.0 10.0 0.00 0.00 0.00 95 1010.5
20150707125551 74 106 3.0 9.0 0.00 0.00 0.00 95 1010.5
20150707125450 74 102 4.0 9.0 0.00 0.00 0.00 95 1010.5
20150707125350 74 97 7.0 10.0 0.00 0.00 0.00 95 1010.6
20150707125250 74 94 5.0 10.0 0.00 0.00 0.00 95 1010.6
20150707125150 74 92 5.0 10.0 0.00 0.00 0.00 95 1010.7
20150707124650 74 103 4.0 10.0 0.00 0.00 0.00 95 1010.6
20150707124450 74 113 3.0 10.0 0.00 0.00 0.00 95 1010.7
20150707124251 74 116 6.0 10.0 0.00 0.00 0.00 95 1010.6
20150707124151 74 118 6.0 10.0 0.00 0.00 0.00 95 1010.5
20150707124050 74 116 4.0 10.0 0.00 0.00 0.00 95 1010.5
20150707123750 74 107 2.0 10.0 0.00 0.00 0.00 95 1010.6
20150707123550 74 91 5.0 10.0 0.00 0.00 0.00 95 1010.4
20150707123350 74 88 4.0 10.0 0.00 0.00 0.00 94 1010.5
20150707123250 74 88 5.0 10.0 0.00 0.00 0.00 94 1010.4
20150707123151 74 83 6.0 10.0 0.00 0.00 0.00 94 1010.4
20150707123050 74 77 5.0 10.0 0.00 0.00 0.00 94 1010.6
20150707122750 74 90 2.0 10.0 0.00 0.00 0.00 94 1010.4
20150707122450 74 80 5.0 8.0 0.00 0.00 0.00 94 1010.5
20150707122351 74 79 4.0 8.0 0.00 0.00 0.00 95 1010.5
20150707122150 74 81 3.0 8.0 0.00 0.00 0.00 95 1010.4
20150707121850 74 88 3.0 8.0 0.00 0.00 0.00 95 1010.3
20150707121750 74 91 5.0 8.0 0.00 0.00 0.00 95 1010.3
20150707121550 74 87 3.0 9.0 0.00 0.00 0.00 95 1010.3
20150707121351 74 77 5.0 9.0 0.00 0.00 0.00 95 1010.2
20150707121250 74 68 4.0 9.0 0.00 0.00 0.00 95 1010.2
20150707121150 74 64 3.0 9.0 0.00 0.00 0.00 95 1010.2
20150707120951 73 53 3.0 9.0 0.00 0.00 0.00 95 1010.3
20150707120850 73 49 3.0 9.0 0.00 0.00 0.00 94 1010.3
20150707120750 73 48 4.0 9.0 0.00 0.00 0.00 94 1010.3
20150707120550 73 53 4.0 9.0 0.00 0.00 0.00 94 1010.4
20150707120351 73 58 4.0 9.0 0.00 0.00 0.00 94 1010.4
20150707120154 73 66 4.0 9.0 0.00 0.00 0.00 94 1010.5
20150707120050 73 72 4.0 9.0 0.00 0.00 0.00 94 1010.6
20150707115750 73 86 3.0 7.0 0.00 0.00 0.00 94 1010.2
20150707115650 73 85 4.0 7.0 0.00 0.00 0.00 94 1010.3
20150707115551 73 85 2.0 7.0 0.00 0.00 0.00 94 1010.3
20150707115450 73 88 3.0 7.0 0.00 0.00 0.00 94 1010.5
20150707115350 73 89 5.0 7.0 0.00 0.00 0.00 94 1010.3
20150707115250 73 90 2.0 7.0 0.00 0.00 0.00 94 1010.3
20150707115151 73 90 3.0 7.0 0.00 0.00 0.00 94 1010.4
20150707115050 73 90 3.0 7.0 0.00 0.00 0.00 94 1010.3
20150707114950 73 93 4.0 7.0 0.00 0.00 0.00 94 1010.5
20150707114850 73 91 3.0 7.0 0.00 0.00 0.00 94 1010.3
20150707114650 73 99 4.0 7.0 0.00 0.00 0.00 94 1010.3
20150707114551 73 101 2.0 7.0 0.00 0.00 0.00 94 1010.2
20150707114150 73 102 3.0 7.0 0.00 0.00 0.00 95 1010.2
20150707113950 73 100 4.0 7.0 0.00 0.00 0.00 95 1010.2
20150707113851 73 98 2.0 7.0 0.00 0.00 0.00 95 1010.3
20150707113751 73 99 3.0 7.0 0.00 0.00 0.00 95 1010.5
20150707113650 73 95 2.0 7.0 0.00 0.00 0.00 95 1010.3
20150707113350 73 94 1.0 7.0 0.00 0.00 0.00 96 1010.3
20150707113251 72 93 3.0 7.0 0.00 0.00 0.00 96 1010.2
20150707113151 72 90 3.0 7.0 0.00 0.00 0.00 96 1010.5
20150707113050 72 88 5.0 7.0 0.00 0.00 0.00 96 1010.3
20150707112950 72 86 3.0 5.0 0.00 0.00 0.00 96 1010.3
20150707112852 72 84 3.0 5.0 0.00 0.00 0.00 96 1010.4
20150707112650 72 80 2.0 5.0 0.00 0.00 0.00 96 1010.2
20150707112451 72 77 3.0 5.0 0.00 0.00 0.00 96 1010.3
20150707112350 72 80 2.0 5.0 0.00 0.00 0.00 96 1010.4
20150707112250 72 85 1.0 6.0 0.00 0.00 0.00 96 1010.5
20150707112150 72 80 1.0 6.0 0.00 0.00 0.00 96 1010.3
20150707112050 72 78 2.0 6.0 0.00 0.00 0.00 96 1010.2
20150707111850 72 77 2.0 6.0 0.00 0.00 0.00 96 1010.3
20150707111750 72 77 3.0 6.0 0.00 0.00 0.00 96 1010.3
20150707111650 72 78 2.0 6.0 0.00 0.00 0.00 96 1010.3
20150707111550 72 78 3.0 6.0 0.00 0.00 0.00 96 1010.4
20150707111450 72 80 3.0 6.0 0.00 0.00 0.00 96 1010.3
20150707111350 72 80 3.0 6.0 0.00 0.00 0.00 96 1010.4
20150707111251 72 78 3.0 6.0 0.00 0.00 0.00 96 1010.4
20150707111150 72 77 2.0 6.0 0.00 0.00 0.00 96 1010.4
20150707110850 72 86 1.0 5.0 0.00 0.00 0.00 96 1010.4
20150707110750 72 86 2.0 5.0 0.00 0.00 0.00 96 1010.2
20150707110651 72 76 1.0 5.0 0.00 0.00 0.00 96 1010.2
20150707110451 72 75 1.0 5.0 0.00 0.00 0.00 96 1010.5
20150707110350 72 75 1.0 5.0 0.00 0.00 0.00 96 1010.2
20150707110150 72 82 2.0 4.0 0.00 0.00 0.00 96 1010.3
20150707110050 72 82 1.0 4.0 0.00 0.00 0.00 96 1010.2
20150707105950 72 83 2.0 6.0 0.00 0.00 0.00 96 1010.3
20150707105850 72 83 2.0 6.0 0.00 0.00 0.00 96 1010.3
20150707105713 72 94 1.0 6.0 0.00 0.00 0.00 96 1010.3
20150707105550 72 95 2.0 6.0 0.00 0.00 0.00 96 1010.2
20150707105451 72 95 1.0 6.0 0.00 0.00 0.00 96 1010.2
20150707105350 72 95 2.0 6.0 0.00 0.00 0.00 96 1010.2
20150707105050 72 98 4.0 6.0 0.00 0.00 0.00 96 1010.2
20150707104950 72 101 3.0 5.0 0.00 0.00 0.00 96 1010.2
20150707104650 72 84 2.0 4.0 0.00 0.00 0.00 96 1010.2
20150707104550 72 81 3.0 4.0 0.00 0.00 0.00 96 1010.2
20150707104450 72 81 2.0 4.0 0.00 0.00 0.00 96 1010.3
20150707104350 72 88 2.0 4.0 0.00 0.00 0.00 96 1010.2
20150707104250 72 88 1.0 4.0 0.00 0.00 0.00 96 1010.2
20150707103950 72 84 1.0 5.0 0.00 0.00 0.00 95 1010.5
20150707103850 72 84 0.0 5.0 0.00 0.00 0.00 95 1010.2
20150707103751 72 82 2.0 5.0 0.00 0.00 0.00 95 1010.4
20150707103350 72 81 1.0 5.0 0.00 0.00 0.00 95 1010.2
20150707103150 72 78 1.0 5.0 0.00 0.00 0.00 95 1010.3
20150707102950 72 75 3.0 5.0 0.00 0.00 0.00 95 1010.2
20150707102850 72 69 2.0 4.0 0.00 0.00 0.00 95 1010.3
20150707102351 72 85 2.0 5.0 0.00 0.00 0.00 94 1010.2
20150707102250 72 89 3.0 5.0 0.00 0.00 0.00 94 1010.2
20150707102151 72 89 1.0 5.0 0.00 0.00 0.00 94 1010.1
20150707101850 72 90 2.0 5.0 0.00 0.00 0.00 94 1010.2
20150707101751 72 88 3.0 5.0 0.00 0.00 0.00 94 1010.1
20150707101650 72 80 1.0 5.0 0.00 0.00 0.00 94 1010.4
20150707101550 72 81 1.0 5.0 0.00 0.00 0.00 94 1010.3
20150707101350 72 82 1.0 5.0 0.00 0.00 0.00 94 1010.1
20150707101250 73 82 3.0 5.0 0.00 0.00 0.00 94 1010.2
20150707101149 73 83 1.0 5.0 0.00 0.00 0.00 94 1010.1
20150707101050 73 85 1.0 5.0 0.00 0.00 0.00 93 1010.2
20150707100950 73 88 2.0 5.0 0.00 0.00 0.00 93 1010.5
20150707100850 73 85 1.0 5.0 0.00 0.00 0.00 93 1010.3
20150707100750 73 85 2.0 5.0 0.00 0.00 0.00 93 1010.2
20150707100650 73 87 3.0 7.0 0.00 0.00 0.00 93 1010.1
20150707100450 73 87 3.0 7.0 0.00 0.00 0.00 93 1010.3
20150707100350 73 87 3.0 7.0 0.00 0.00 0.00 93 1010.4
20150707100250 73 90 3.0 7.0 0.00 0.00 0.00 93 1010.4
20150707100050 73 93 3.0 7.0 0.00 0.00 0.00 93 1010.3
20150707095950 73 89 3.0 7.0 0.00 0.00 0.00 93 1010.4
20150707095850 73 91 2.0 7.0 0.00 0.00 0.00 93 1010.3
20150707095650 72 92 4.0 7.0 0.00 0.00 0.00 93 1010.3
20150707095550 73 93 3.0 6.0 0.00 0.00 0.00 93 1010.3
20150707095450 72 93 3.0 6.0 0.00 0.00 0.00 93 1010.4
20150707095350 72 93 2.0 6.0 0.00 0.00 0.00 93 1010.3
20150707095250 72 88 2.0 6.0 0.00 0.00 0.00 93 1010.4
20150707094950 72 74 2.0 5.0 0.00 0.00 0.00 93 1010.5
20150707094750 72 65 4.0 5.0 0.00 0.00 0.00 93 1010.4
20150707094651 72 66 1.0 5.0 0.00 0.00 0.00 93 1010.5
20150707094450 72 64 2.0 5.0 0.00 0.00 0.00 93 1010.3
20150707094150 72 78 1.0 5.0 0.00 0.00 0.00 93 1010.3
20150707094050 72 79 2.0 5.0 0.00 0.00 0.00 93 1010.1
20150707093951 72 81 2.0 5.0 0.00 0.00 0.00 93 1010.2
20150707093750 72 84 2.0 4.0 0.00 0.00 0.00 93 1010.2
20150707093050 72 82 1.0 3.0 0.00 0.00 0.00 93 1010.3
20150707092950 72 82 1.0 3.0 0.00 0.00 0.00 93 1010.3
20150707092850 72 83 1.0 3.0 0.00 0.00 0.00 93 1010.3
20150707092750 72 87 1.0 3.0 0.00 0.00 0.00 93 1010.3
20150707092650 72 87 1.0 3.0 0.00 0.00 0.00 93 1010.1
20150707092550 72 87 1.0 3.0 0.00 0.00 0.00 93 1010.2
20150707092450 72 84 2.0 3.0 0.00 0.00 0.00 93 1010.1
20150707092250 72 81 1.0 3.0 0.00 0.00 0.00 93 1010.3
20150707092150 72 82 1.0 3.0 0.00 0.00 0.00 94 1010.3
20150707092051 72 81 2.0 3.0 0.00 0.00 0.00 94 1010.1
20150707091950 72 81 1.0 3.0 0.00 0.00 0.00 94 1010.4
20150707091850 72 81 0.0 3.0 0.00 0.00 0.00 94 1010.3
20150707091656 72 82 1.0 3.0 0.00 0.00 0.00 94 1010.2
20150707091550 72 77 1.0 3.0 0.00 0.00 0.00 94 1010.2
20150707091451 72 77 2.0 3.0 0.00 0.00 0.00 94 1010.3
20150707091351 72 83 1.0 3.0 0.00 0.00 0.00 93 1010.4
20150707091150 72 79 1.0 3.0 0.00 0.00 0.00 93 1010.3
20150707090950 72 76 1.0 3.0 0.00 0.00 0.00 93 1010.2
20150707090851 72 76 1.0 3.0 0.00 0.00 0.00 93 1010.2
20150707090750 72 76 1.0 3.0 0.00 0.00 0.00 93 1010.3
20150707090550 72 81 1.0 3.0 0.00 0.00 0.00 93 1010.2
20150707090450 72 84 1.0 3.0 0.00 0.00 0.00 93 1010.2
20150707090350 72 84 2.0 3.0 0.00 0.00 0.00 93 1010.2
20150707090250 72 85 1.0 3.0 0.00 0.00 0.00 93 1010.3
20150707090150 72 84 1.0 3.0 0.00 0.00 0.00 93 1010.3
20150707090050 72 82 1.0 3.0 0.00 0.00 0.00 93 1010.1
20150707085950 72 81 1.0 3.0 0.00 0.00 0.00 93 1010.1
20150707085650 72 76 2.0 3.0 0.00 0.00 0.00 93 1010.1
20150707085450 72 76 1.0 4.0 0.00 0.00 0.00 93 1010.3
20150707085350 72 76 1.0 4.0 0.00 0.00 0.00 93 1010.2
20150707085250 72 81 1.0 4.0 0.00 0.00 0.00 93 1010.1
20150707085150 72 84 1.0 4.0 0.00 0.00 0.00 93 1010.2
20150707084850 72 90 1.0 4.0 0.00 0.00 0.00 93 1010.2
20150707084750 72 92 1.0 4.0 0.00 0.00 0.00 93 1010.0
20150707084650 72 93 1.0 4.0 0.00 0.00 0.00 93 1010.1
20150707084550 72 98 1.0 5.0 0.00 0.00 0.00 93 1010.2
20150707084050 72 101 2.0 5.0 0.00 0.00 0.00 92 1010.3
20150707083850 72 102 1.0 5.0 0.00 0.00 0.00 92 1010.1
20150707083751 72 105 1.0 5.0 0.00 0.00 0.00 92 1010.0
20150707083551 72 101 3.0 5.0 0.00 0.00 0.00 92 1010.1
20150707083450 72 92 1.0 4.0 0.00 0.00 0.00 92 1010.1
20150707083251 72 87 1.0 4.0 0.00 0.00 0.00 92 1010.2
20150707083156 72 83 2.0 4.0 0.00 0.00 0.00 92 1010.2
20150707082650 72 69 3.0 6.0 0.00 0.00 0.00 92 1010.2
20150707082550 72 68 1.0 6.0 0.00 0.00 0.00 92 1010.2
20150707082350 72 77 1.0 6.0 0.00 0.00 0.00 92 1010.1
20150707082250 72 76 1.0 6.0 0.00 0.00 0.00 92 1010.2
20150707082150 72 80 3.0 6.0 0.00 0.00 0.00 93 1010.2
20150707082050 72 79 2.0 6.0 0.00 0.00 0.00 93 1010.2
20150707081850 72 83 2.0 3.0 0.00 0.00 0.00 93 1010.2
20150707081750 72 83 1.0 3.0 0.00 0.00 0.00 92 1010.1
20150707081350 72 81 1.0 3.0 0.00 0.00 0.00 92 1010.3
20150707081150 72 81 1.0 3.0 0.00 0.00 0.00 92 1010.2
20150707081050 72 81 1.0 3.0 0.00 0.00 0.00 92 1010.3
20150707080950 72 81 1.0 3.0 0.00 0.00 0.00 92 1010.3
20150707080849 72 79 2.0 3.0 0.00 0.00 0.00 92 1010.2
20150707080650 72 89 1.0 3.0 0.00 0.00 0.00 92 1010.2
20150707080550 72 90 1.0 3.0 0.00 0.00 0.00 92 1010.2
20150707080350 72 90 1.0 4.0 0.00 0.00 0.00 92 1010.2
20150707080250 72 91 1.0 5.0 0.00 0.00 0.00 92 1010.2
20150707080150 72 94 1.0 6.0 0.00 0.00 0.00 92 1010.3
20150707080051 72 101 1.0 6.0 0.00 0.00 0.00 92 1010.1
20150707075950 72 106 1.0 6.0 0.00 0.00 0.00 92 1010.2
20150707075750 72 119 1.0 6.0 0.00 0.00 0.00 92 1010.2
20150707075250 72 112 3.0 6.0 0.00 0.00 0.00 92 1010.3
20150707075150 72 111 4.0 6.0 0.00 0.00 0.00 92 1010.3
20150707075050 72 104 1.0 5.0 0.00 0.00 0.00 92 1010.3
20150707074750 72 86 2.0 6.0 0.00 0.00 0.00 92 1010.3
20150707074450 72 82 2.0 6.0 0.00 0.00 0.00 92 1010.3
20150707074150 72 82 1.0 6.0 0.00 0.00 0.00 92 1010.1
20150707074050 72 82 2.0 6.0 0.00 0.00 0.00 92 1010.1
20150707073950 72 82 3.0 6.0 0.00 0.00 0.00 92 1010.0
20150707073650 72 88 1.0 5.0 0.00 0.00 0.00 92 1010.2
20150707073550 72 88 2.0 5.0 0.00 0.00 0.00 92 1010.1
20150707073451 72 91 3.0 5.0 0.00 0.00 0.00 92 1010.1
20150707073350 72 91 2.0 5.0 0.00 0.00 0.00 92 1010.3
20150707073250 72 91 3.0 5.0 0.00 0.00 0.00 92 1010.1
20150707072951 72 91 3.0 5.0 0.00 0.00 0.00 92 1010.2
20150707072850 72 92 3.0 5.0 0.00 0.00 0.00 92 1010.3
20150707072650 72 90 3.0 5.0 0.00 0.00 0.00 92 1010.3
20150707072550 72 91 1.0 5.0 0.00 0.00 0.00 92 1010.2
20150707072350 72 88 1.0 5.0 0.00 0.00 0.00 92 1010.4
20150707072250 72 85 1.0 5.0 0.00 0.00 0.00 92 1010.3
20150707072150 72 86 1.0 5.0 0.00 0.00 0.00 92 1010.5
20150707072050 72 86 1.0 5.0 0.00 0.00 0.00 92 1010.5
20150707071950 72 80 1.0 5.0 0.00 0.00 0.00 92 1010.3
20150707071750 72 68 2.0 5.0 0.00 0.00 0.00 92 1010.5
20150707071650 72 68 3.0 5.0 0.00 0.00 0.00 92 1010.4
20150707071550 72 62 1.0 5.0 0.00 0.00 0.00 92 1010.4
20150707071251 72 69 2.0 5.0 0.00 0.00 0.00 91 1010.3
20150707071150 72 76 2.0 7.0 0.00 0.00 0.00 91 1010.3
20150707071050 72 76 2.0 7.0 0.00 0.00 0.00 91 1010.3
20150707070951 72 81 3.0 7.0 0.00 0.00 0.00 91 1010.4
20150707070850 72 82 2.0 7.0 0.00 0.00 0.00 91 1010.4
20150707070550 72 92 3.0 7.0 0.00 0.00 0.00 91 1010.2
20150707070450 72 94 3.0 7.0 0.00 0.00 0.00 91 1010.4
20150707070350 72 95 2.0 7.0 0.00 0.00 0.00 91 1010.2
20150707070250 72 95 3.0 7.0 0.00 0.00 0.00 91 1010.3
20150707065949 72 92 2.0 7.0 0.00 0.00 0.00 91 1010.3
20150707065850 72 96 2.0 7.0 0.00 0.00 0.00 91 1010.3
20150707065750 72 93 3.0 7.0 0.00 0.00 0.00 91 1010.4
20150707065650 72 93 3.0 7.0 0.00 0.00 0.00 91 1010.3
20150707065450 72 102 2.0 5.0 0.00 0.00 0.00 91 1010.2
20150707065350 72 97 3.0 5.0 0.00 0.00 0.00 91 1010.2
20150707065249 72 100 3.0 5.0 0.00 0.00 0.00 91 1010.3
20150707064950 72 98 1.0 5.0 0.00 0.00 0.00 91 1010.3
20150707064750 72 98 3.0 5.0 0.00 0.00 0.00 91 1010.3
20150707064650 72 98 1.0 5.0 0.00 0.00 0.00 91 1010.3
20150707064550 72 98 1.0 5.0 0.00 0.00 0.00 91 1010.4
20150707064350 72 93 1.0 5.0 0.00 0.00 0.00 91 1010.4
20150707064150 72 88 2.0 5.0 0.00 0.00 0.00 91 1010.2
20150707064050 72 86 3.0 5.0 0.00 0.00 0.00 91 1010.5
20150707063950 72 86 1.0 5.0 0.00 0.00 0.00 91 1010.3
20150707063850 73 86 2.0 5.0 0.00 0.00 0.00 91 1010.2
20150707063750 73 83 1.0 5.0 0.00 0.00 0.00 91 1010.1
20150707063650 73 82 1.0 5.0 0.00 0.00 0.00 91 1010.2
20150707063449 72 82 2.0 5.0 0.00 0.00 0.00 91 1010.2
20150707063350 73 82 2.0 5.0 0.00 0.00 0.00 91 1010.2
20150707063250 73 82 3.0 5.0 0.00 0.00 0.00 91 1010.3
20150707063150 73 85 3.0 5.0 0.00 0.00 0.00 91 1010.2
20150707062750 72 97 3.0 5.0 0.00 0.00 0.00 91 1010.1
20150707062650 72 100 3.0 5.0 0.00 0.00 0.00 91 1010.4
20150707062550 72 103 3.0 5.0 0.00 0.00 0.00 91 1010.4
20150707062450 73 104 3.0 5.0 0.00 0.00 0.00 91 1010.4
20150707062250 72 105 1.0 5.0 0.00 0.00 0.00 91 1010.4
20150707062050 72 97 2.0 5.0 0.00 0.00 0.00 91 1010.5
20150707061950 72 93 2.0 5.0 0.00 0.00 0.00 91 1010.5
20150707061850 73 86 2.0 5.0 0.00 0.00 0.00 91 1010.5
20150707061750 72 78 3.0 5.0 0.00 0.00 0.00 91 1010.5
20150707061650 72 76 3.0 5.0 0.00 0.00 0.00 91 1010.3
20150707061550 72 71 1.0 3.0 0.00 0.00 0.00 91 1010.5
20150707061150 72 75 1.0 3.0 0.00 0.00 0.00 91 1010.3
20150707060950 73 81 2.0 3.0 0.00 0.00 0.00 91 1010.4
20150707060850 72 91 2.0 3.0 0.00 0.00 0.00 91 1010.3
20150707060751 73 95 3.0 3.0 0.00 0.00 0.00 91 1010.1
20150707060350 73 94 1.0 4.0 0.00 0.00 0.00 91 1010.6
20150707060251 73 101 1.0 4.0 0.00 0.00 0.00 91 1010.6
20150707060150 73 104 1.0 4.0 0.00 0.00 0.00 91 1010.5
20150707060051 73 105 1.0 4.0 0.00 0.00 0.00 91 1010.6
20150707055850 73 100 3.0 5.0 0.00 0.00 0.00 91 1010.2
20150707055750 73 98 1.0 6.0 0.00 0.00 0.00 91 1010.3
20150707055650 73 98 0.0 6.0 0.00 0.00 0.00 91 1010.3
20150707055450 73 102 1.0 6.0 0.00 0.00 0.00 91 1010.3
20150707055350 72 106 3.0 6.0 0.00 0.00 0.00 91 1010.3
20150707055250 73 102 1.0 6.0 0.00 0.00 0.00 91 1010.5
20150707055150 73 100 1.0 6.0 0.00 0.00 0.00 91 1010.2
20150707054950 73 98 1.0 6.0 0.00 0.00 0.00 91 1010.5
20150707054850 73 98 2.0 6.0 0.00 0.00 0.00 91 1010.3
20150707054750 73 99 4.0 6.0 0.00 0.00 0.00 91 1010.3
20150707054650 73 99 1.0 5.0 0.00 0.00 0.00 91 1010.4
20150707054449 73 101 1.0 5.0 0.00 0.00 0.00 91 1010.3
20150707054249 73 98 1.0 5.0 0.00 0.00 0.00 91 1010.4
20150707053953 73 117 2.0 5.0 0.00 0.00 0.00 90 1010.4
20150707053850 73 117 3.0 5.0 0.00 0.00 0.00 90 1010.4
20150707053650 73 117 1.0 5.0 0.00 0.00 0.00 90 1010.4
20150707053450 73 109 1.0 5.0 0.00 0.00 0.00 90 1010.3
20150707053349 73 108 3.0 5.0 0.00 0.00 0.00 90 1010.4
20150707052650 73 108 2.0 5.0 0.00 0.00 0.00 90 1010.3
20150707052350 73 105 1.0 5.0 0.00 0.00 0.00 90 1010.3
20150707052150 73 93 3.0 5.0 0.00 0.00 0.00 90 1010.3
20150707052050 73 93 2.0 5.0 0.00 0.00 0.00 90 1010.4
20150707051950 73 87 3.0 5.0 0.00 0.00 0.00 89 1010.2
20150707051850 73 78 1.0 4.0 0.00 0.00 0.00 89 1010.4
20150707051650 73 73 1.0 4.0 0.00 0.00 0.00 89 1010.2
20150707051550 73 74 2.0 4.0 0.00 0.00 0.00 89 1010.2
20150707051350 73 76 2.0 4.0 0.00 0.00 0.00 89 1010.3
20150707051250 73 77 2.0 4.0 0.00 0.00 0.00 89 1010.4
20150707051150 73 78 2.0 4.0 0.00 0.00 0.00 89 1010.5
20150707050850 73 81 1.0 4.0 0.00 0.00 0.00 89 1010.4
20150707050550 73 93 1.0 3.0 0.00 0.00 0.00 89 1010.6
20150707050250 73 99 1.0 3.0 0.00 0.00 0.00 89 1010.6
20150707050150 74 98 0.0 4.0 0.00 0.00 0.00 89 1010.4
20150707050050 73 98 2.0 4.0 0.00 0.00 0.00 89 1010.6
20150707045953 74 97 1.0 5.0 0.00 0.00 0.00 89 1010.6
20150707045853 74 97 1.0 5.0 0.00 0.00 0.00 89 1010.7
20150707045750 74 97 1.0 5.0 0.00 0.00 0.00 88 1010.5
20150707045552 74 94 2.0 5.0 0.00 0.00 0.00 88 1010.8
20150707045452 74 98 2.0 6.0 0.00 0.00 0.00 88 1010.7
20150707045352 74 98 2.0 6.0 0.00 0.00 0.00 88 1010.7
20150707045249 74 102 1.0 6.0 0.00 0.00 0.00 88 1010.6
20150707045150 74 102 3.0 6.0 0.00 0.00 0.00 88 1010.7
20150707044949 74 106 1.0 6.0 0.00 0.00 0.00 88 1010.7
20150707044850 74 108 1.0 6.0 0.00 0.00 0.00 88 1010.8
20150707044750 74 108 2.0 6.0 0.00 0.00 0.00 87 1010.8
20150707044650 74 103 3.0 6.0 0.00 0.00 0.00 87 1010.8
20150707044550 74 103 3.0 6.0 0.00 0.00 0.00 87 1010.8
20150707044450 74 98 2.0 6.0 0.00 0.00 0.00 87 1010.8
20150707044350 74 91 3.0 6.0 0.00 0.00 0.00 87 1010.8
20150707044250 74 83 1.0 7.0 0.00 0.00 0.00 87 1010.9
20150707044150 74 83 1.0 7.0 0.00 0.00 0.00 87 1010.7
20150707044050 74 84 3.0 7.0 0.00 0.00 0.00 87 1010.7
20150707043949 74 82 2.0 7.0 0.00 0.00 0.00 87 1010.8
20150707043849 74 78 2.0 7.0 0.00 0.00 0.00 87 1010.7
20150707043750 74 78 4.0 7.0 0.00 0.00 0.00 87 1010.9
20150707043551 74 73 3.0 7.0 0.00 0.00 0.00 87 1010.7
20150707043450 74 72 3.0 7.0 0.00 0.00 0.00 87 1010.7
20150707043149 74 76 3.0 6.0 0.00 0.00 0.00 87 1010.6
20150707043050 74 75 3.0 5.0 0.00 0.00 0.00 87 1010.6
20150707042850 74 79 3.0 5.0 0.00 0.00 0.00 87 1010.7
20150707042750 74 80 2.0 6.0 0.00 0.00 0.00 87 1010.8
20150707042552 74 83 1.0 6.0 0.00 0.00 0.00 87 1010.9
20150707042450 74 83 0.0 6.0 0.00 0.00 0.00 87 1010.8
20150707042250 74 85 1.0 6.0 0.00 0.00 0.00 86 1011.0
20150707042150 74 88 3.0 6.0 0.00 0.00 0.00 86 1010.8
20150707042050 75 93 1.0 6.0 0.00 0.00 0.00 86 1011.2
20150707041950 75 93 3.0 6.0 0.00 0.00 0.00 86 1011.1
20150707041750 74 93 2.0 5.0 0.00 0.00 0.00 86 1011.1
20150707041649 74 103 2.0 7.0 0.00 0.00 0.00 86 1010.9
20150707041450 74 116 2.0 7.0 0.00 0.00 0.00 86 1011.2
20150707041350 74 121 3.0 7.0 0.00 0.00 0.00 86 1011.2
20150707041250 74 124 3.0 7.0 0.00 0.00 0.00 86 1011.1
20150707041150 74 126 2.0 7.0 0.00 0.00 0.00 86 1011.1
20150707040951 75 130 1.0 7.0 0.00 0.00 0.00 86 1010.9
20150707040850 74 130 3.0 7.0 0.00 0.00 0.00 86 1011.1
20150707040750 74 131 3.0 7.0 0.00 0.00 0.00 86 1011.0
20150707040551 75 125 5.0 7.0 0.00 0.00 0.00 85 1011.2
20150707040350 75 114 5.0 7.0 0.00 0.00 0.00 85 1011.1
20150707040251 75 109 5.0 7.0 0.00 0.00 0.00 85 1011.3
20150707040150 75 102 5.0 7.0 0.00 0.00 0.00 85 1011.3
20150707040051 75 92 5.0 7.0 0.00 0.00 0.00 85 1011.3
20150707035954 75 85 5.0 7.0 0.00 0.00 0.00 85 1011.2
20150707035751 75 83 3.0 7.0 0.00 0.00 0.00 85 1011.4
20150707035650 75 80 3.0 7.0 0.00 0.00 0.00 85 1011.2
20150707035551 75 82 4.0 7.0 0.00 0.00 0.00 85 1010.8
20150707035450 75 82 5.0 7.0 0.00 0.00 0.00 85 1011.1
20150707035050 75 86 4.0 7.0 0.00 0.00 0.00 84 1011.0
20150707034850 75 87 2.0 7.0 0.00 0.00 0.00 83 1011.0
20150707034750 75 88 3.0 7.0 0.00 0.00 0.00 83 1011.2
20150707034651 75 84 3.0 7.0 0.00 0.00 0.00 83 1011.1
20150707034555 75 84 3.0 7.0 0.00 0.00 0.00 83 1011.1
20150707034350 75 87 3.0 7.0 0.00 0.00 0.00 82 1011.2
20150707034250 75 87 3.0 6.0 0.00 0.00 0.00 82 1011.2
20150707034050 76 87 3.0 6.0 0.00 0.00 0.00 82 1011.3
20150707033950 76 90 3.0 5.0 0.00 0.00 0.00 82 1011.4
20150707033850 76 86 3.0 5.0 0.00 0.00 0.00 82 1011.4
20150707033750 75 83 3.0 5.0 0.00 0.00 0.00 82 1011.3
20150707033651 75 86 3.0 5.0 0.00 0.00 0.00 82 1011.3
20150707033351 75 75 2.0 5.0 0.00 0.00 0.00 82 1011.3
20150707033250 76 76 2.0 5.0 0.00 0.00 0.00 82 1011.5
20150707033150 76 76 3.0 5.0 0.00 0.00 0.00 82 1011.4
20150707033050 76 77 2.0 5.0 0.00 0.00 0.00 82 1011.1
20150707032950 76 78 3.0 5.0 0.00 0.00 0.00 82 1011.3
20150707032850 76 84 3.0 5.0 0.00 0.00 0.00 82 1011.3
20150707032750 76 87 3.0 5.0 0.00 0.00 0.00 82 1011.2
20150707032650 75 88 1.0 5.0 0.00 0.00 0.00 82 1011.4
20150707032351 75 91 2.0 5.0 0.00 0.00 0.00 82 1011.3
20150707032251 75 91 2.0 5.0 0.00 0.00 0.00 82 1011.3
20150707032050 75 92 3.0 5.0 0.00 0.00 0.00 82 1011.5
20150707031950 75 87 1.0 4.0 0.00 0.00 0.00 82 1011.3
20150707031650 76 90 1.0 3.0 0.00 0.00 0.00 82 1011.4
20150707031551 76 110 1.0 3.0 0.00 0.00 0.00 82 1011.5
20150707031351 75 116 1.0 3.0 0.00 0.00 0.00 81 1011.4
20150707031251 76 119 0.0 3.0 0.00 0.00 0.00 81 1011.3
20150707031152 76 125 1.0 3.0 0.00 0.00 0.00 81 1011.4
20150707031051 76 119 1.0 5.0 0.00 0.00 0.00 80 1011.5
20150707030850 76 100 1.0 5.0 0.00 0.00 0.00 80 1011.3
20150707030749 76 92 1.0 5.0 0.00 0.00 0.00 80 1011.4
20150707030650 76 90 1.0 5.0 0.00 0.00 0.00 80 1011.5
20150707030550 76 86 1.0 5.0 0.00 0.00 0.00 79 1011.2
20150707030350 76 78 1.0 5.0 0.00 0.00 0.00 79 1011.4
20150707030250 76 71 2.0 5.0 0.00 0.00 0.00 79 1011.4
20150707030149 76 68 1.0 5.0 0.00 0.00 0.00 79 1011.3
20150707025650 76 70 2.0 5.0 0.00 0.00 0.00 78 1011.2
20150707025550 77 74 2.0 5.0 0.00 0.00 0.00 78 1011.0
20150707025449 76 72 2.0 5.0 0.00 0.00 0.00 78 1011.2
20150707025350 76 75 2.0 5.0 0.00 0.00 0.00 78 1010.9
20150707025250 77 81 3.0 5.0 0.00 0.00 0.00 78 1011.1
20150707025149 77 81 3.0 5.0 0.00 0.00 0.00 78 1011.0
20150707024950 77 84 2.0 5.0 0.00 0.00 0.00 78 1011.0
20150707024851 77 86 3.0 5.0 0.00 0.00 0.00 78 1011.0
20150707024750 77 86 3.0 5.0 0.00 0.00 0.00 78 1011.1
20150707024651 77 83 2.0 5.0 0.00 0.00 0.00 78 1010.9
20150707024550 77 79 2.0 5.0 0.00 0.00 0.00 78 1010.9
20150707024250 77 85 3.0 5.0 0.00 0.00 0.00 77 1011.0
20150707024051 77 84 2.0 4.0 0.00 0.00 0.00 76 1010.9
20150707023949 77 86 2.0 4.0 0.00 0.00 0.00 77 1011.0
20150707023850 77 86 2.0 4.0 0.00 0.00 0.00 77 1011.0
20150707023750 77 86 2.0 4.0 0.00 0.00 0.00 76 1010.9
20150707023651 77 89 1.0 4.0 0.00 0.00 0.00 77 1011.0
20150707023457 77 89 1.0 4.0 0.00 0.00 0.00 76 1010.7
20150707023250 77 88 2.0 4.0 0.00 0.00 0.00 76 1010.8
20150707023151 77 90 1.0 4.0 0.00 0.00 0.00 76 1010.8
20150707022951 77 89 1.0 4.0 0.00 0.00 0.00 76 1010.9
20150707022850 77 87 2.0 4.0 0.00 0.00 0.00 76 1010.8
20150707022750 77 87 2.0 4.0 0.00 0.00 0.00 76 1010.6
20150707022351 77 87 1.0 4.0 0.00 0.00 0.00 76 1010.6
20150707022250 77 87 2.0 4.0 0.00 0.00 0.00 76 1011.0
20150707022051 77 87 1.0 4.0 0.00 0.00 0.00 76 1010.8
20150707021950 77 89 1.0 4.0 0.00 0.00 0.00 76 1010.7
20150707021850 77 90 1.0 4.0 0.00 0.00 0.00 76 1010.7
20150707021752 77 90 2.0 4.0 0.00 0.00 0.00 76 1010.5
20150707021650 77 90 2.0 4.0 0.00 0.00 0.00 76 1010.6
20150707021451 77 90 2.0 4.0 0.00 0.00 0.00 76 1010.7
20150707021350 77 90 1.0 4.0 0.00 0.00 0.00 76 1010.6
20150707021151 77 90 1.0 4.0 0.00 0.00 0.00 76 1010.6
20150707021050 77 90 2.0 4.0 0.00 0.00 0.00 76 1010.5
20150707020950 77 90 1.0 4.0 0.00 0.00 0.00 76 1010.5
20150707020850 77 90 1.0 4.0 0.00 0.00 0.00 76 1010.5
20150707020750 77 90 2.0 4.0 0.00 0.00 0.00 76 1010.3
20150707020649 78 88 3.0 4.0 0.00 0.00 0.00 75 1010.5
20150707020450 78 88 3.0 5.0 0.00 0.00 0.00 75 1010.4
20150707020350 78 88 3.0 5.0 0.00 0.00 0.00 75 1010.5
20150707020251 78 84 3.0 5.0 0.00 0.00 0.00 75 1010.4
20150707020051 78 79 3.0 5.0 0.00 0.00 0.00 75 1010.4
20150707015549 78 68 3.0 5.0 0.00 0.00 0.00 75 1010.5
20150707015450 78 67 3.0 4.0 0.00 0.00 0.00 75 1010.5
20150707015350 78 65 3.0 4.0 0.00 0.00 0.00 76 1010.3
20150707015252 78 67 2.0 4.0 0.00 0.00 0.00 76 1010.5
20150707015150 78 71 2.0 4.0 0.00 0.00 0.00 76 1010.6
20150707015050 78 72 2.0 4.0 0.00 0.00 0.00 76 1010.4
20150707014950 78 75 2.0 4.0 0.00 0.00 0.00 76 1010.6
20150707014750 78 81 2.0 3.0 0.00 0.00 0.00 76 1010.5
20150707014450 77 82 1.0 3.0 0.00 0.00 0.00 76 1010.3
20150707014250 78 81 1.0 3.0 0.00 0.00 0.00 76 1010.5
20150707014051 78 79 1.0 3.0 0.00 0.00 0.00 76 1010.5
20150707013951 78 76 1.0 3.0 0.00 0.00 0.00 76 1010.4
20150707013656 78 77 1.0 3.0 0.00 0.00 0.00 76 1010.5
20150707013252 78 83 3.0 3.0 0.00 0.00 0.00 76 1010.4
20150707013153 78 82 2.0 3.0 0.00 0.00 0.00 76 1010.2
20150707012854 78 90 2.0 3.0 0.00 0.00 0.00 77 1010.4
20150707012755 78 90 1.0 3.0 0.00 0.00 0.00 77 1010.4
20150707012549 78 86 1.0 2.0 0.00 0.00 0.00 77 1010.4
20150707012450 78 86 1.0 3.0 0.00 0.00 0.00 77 1010.5
20150707012351 78 86 0.0 3.0 0.00 0.00 0.00 77 1010.4
20150707012252 78 86 1.0 3.0 0.00 0.00 0.00 77 1010.2
20150707012150 78 87 0.0 3.0 0.00 0.00 0.00 77 1010.5
20150707012053 78 87 0.0 3.0 0.00 0.00 0.00 77 1010.4
20150707011951 78 87 1.0 3.0 0.00 0.00 0.00 77 1010.4
20150707011851 78 87 0.0 3.0 0.00 0.00 0.00 77 1010.4
20150707011650 78 90 1.0 3.0 0.00 0.00 0.00 77 1010.5
20150707011550 78 90 1.0 3.0 0.00 0.00 0.00 77 1010.4
20150707011450 78 89 1.0 3.0 0.00 0.00 0.00 77 1010.2
20150707011350 78 85 1.0 3.0 0.00 0.00 0.00 78 1010.1
20150707011250 78 84 1.0 3.0 0.00 0.00 0.00 78 1010.5
20150707011150 78 83 1.0 3.0 0.00 0.00 0.00 78 1010.5
20150707011052 78 83 1.0 3.0 0.00 0.00 0.00 78 1010.1
20150707010751 78 82 1.0 3.0 0.00 0.00 0.00 77 1010.3
20150707010552 78 83 1.0 3.0 0.00 0.00 0.00 77 1010.2
20150707010450 78 84 1.0 3.0 0.00 0.00 0.00 77 1010.1
20150707010351 78 89 1.0 3.0 0.00 0.00 0.00 77 1010.3
20150707010250 78 88 1.0 3.0 0.00 0.00 0.00 76 1010.2
20150707010149 78 81 1.0 3.0 0.00 0.00 0.00 76 1010.2
20150707005851 79 72 0.0 3.0 0.00 0.00 0.00 75 1010.4
20150707005750 79 70 0.0 3.0 0.00 0.00 0.00 73 1010.1
20150707005650 79 71 1.0 3.0 0.00 0.00 0.00 73 1010.2
20150707005350 79 70 1.0 3.0 0.00 0.00 0.00 73 1010.4
20150707005150 79 73 1.0 3.0 0.00 0.00 0.00 72 1010.4
20150707005050 79 74 2.0 3.0 0.00 0.00 0.00 72 1010.4
20150707004851 79 76 2.0 3.0 0.00 0.00 0.00 72 1010.5
20150707004650 79 75 2.0 3.0 0.00 0.00 0.00 72 1010.5
20150707004551 79 75 1.0 3.0 0.00 0.00 0.00 72 1010.5
20150707004450 79 75 1.0 3.0 0.00 0.00 0.00 72 1010.4
20150707004350 79 77 2.0 3.0 0.00 0.00 0.00 72 1010.6
20150707004149 79 80 0.0 3.0 0.00 0.00 0.00 72 1010.5
20150707003750 80 89 2.0 4.0 0.00 0.00 0.00 72 1010.5
20150707003551 80 85 1.0 4.0 0.00 0.00 0.00 71 1010.5
20150707003450 80 85 1.0 4.0 0.00 0.00 0.00 71 1010.6
20150707003350 80 85 1.0 4.0 0.00 0.00 0.00 71 1010.5
20150707003249 80 85 1.0 4.0 0.00 0.00 0.00 71 1010.5
20150707003150 80 86 1.0 4.0 0.00 0.00 0.00 71 1010.5
20150707002750 80 83 1.0 3.0 0.00 0.00 0.00 70 1010.5
20150707002649 80 87 1.0 3.0 0.00 0.00 0.00 70 1010.6
20150707002450 80 87 1.0 3.0 0.00 0.00 0.00 70 1010.6
20150707001750 81 92 1.0 3.0 0.00 0.00 0.00 68 1010.6
20150707001550 81 100 1.0 3.0 0.00 0.00 0.00 69 1010.5
20150707001449 81 106 1.0 3.0 0.00 0.00 0.00 68 1010.6
20150707001153 81 123 1.0 2.0 0.00 0.00 0.00 68 1010.6
20150707001049 81 129 0.0 2.0 0.00 0.00 0.00 68 1010.6
20150707000650 82 135 1.0 3.0 0.00 0.00 0.00 66 1010.6
20150707000550 82 138 1.0 3.0 0.00 0.00 0.00 66 1010.5